Flag for Canada Weather past 2 weeks in Coquitlam, British Columbia, Canada

Now
61 °F

Cool.


Feels Like: 61 °F
Forecast: 41 / 53 °F
Wind: 6 mph from Northeast

Location: P. Meadows Coastal Station

Current Time: Mar 30, 2015 at 6:19:35 PM

Latest Report: Mar 30, 2015 at 5:00 PM


Visibility: N/A

Pressure: 29.88 "Hg

Humidity: 69%

Dew point: 50 °F

Location of CoquitlamLocation

Historic Weather in Coquitlam — Graph

°F

Coquitlam temperature yesterday

Maximum temperature yesterday: 49 °F (at 12:00 AM)
Minimum temperature yesterday: 45 °F (at 7:00 AM)
Average temperature yesterday: 46 °F

Past Weeks' High & Low Weather Summary

 TemperatureHumidityPressure
High64 °F (Mar 27, 3:00 PM)100% (Mar 19, 7:00 AM)30.31 "Hg (Mar 19, 7:00 AM)
Low38 °F (Mar 17, 2:00 AM)30% (Mar 16, 5:00 PM)29.75 "Hg (Mar 15, 6:00 PM)
Average49 °F86%30.09 "Hg
* Reported Mar 15 4:00 PM — Mar 30 4:00 PM, Coquitlam, Weather by CustomWeather, © 2015

Note: Actual official high and low records may vary slightly from our data, if they occured in-between our weather recording intervals... More about our weather records

Advertising

Coquitlam weather history for previous 24 hours

 ConditionsComfort  
Time TempWeatherWind HumidityBarometerVisibility
4:00 PM
Mon, Mar 30
62 °FCool.5 mph67%29.90 "HgN/A
3:00 PM60 °FCool.3 mph70%29.94 "HgN/A
2:00 PM59 °FCool.7 mph77%29.97 "HgN/A
1:00 PM57 °FCool.7 mph82%29.99 "HgN/A
12:00 PM57 °FCool.3 mph84%30.01 "HgN/A
11:00 AM54 °FCool.2 mph90%30.02 "HgN/A
10:00 AM51 °FCool.1 mph92%30.03 "HgN/A
9:00 AM49 °FCool.2 mph95%30.03 "HgN/A
8:00 AM47 °FCool.2 mph97%30.04 "HgN/A
7:00 AM47 °FCool.1 mph96%30.05 "HgN/A
6:00 AM47 °FCool.2 mph97%30.06 "HgN/A
5:00 AM47 °FCool.2 mph96%30.07 "HgN/A
4:00 AM47 °FCool.2 mph97%30.09 "HgN/A
3:00 AM47 °FCool.6 mph97%30.09 "HgN/A
2:00 AM46 °FCool.6 mph97%30.11 "HgN/A
1:00 AM46 °FCool.8 mph97%30.12 "HgN/A
12:00 AM46 °FCool.7 mph97%30.13 "HgN/A
11:00 PM
Sun, Mar 29
46 °FCool.9 mph96%30.14 "HgN/A
10:00 PM46 °FCool.9 mph97%30.14 "HgN/A
9:00 PM46 °FCool.8 mph96%30.15 "HgN/A
8:00 PM46 °FCool.10 mph94%30.15 "HgN/A
7:00 PM46 °FCool.9 mph94%30.16 "HgN/A
6:00 PM46 °FCool.10 mph93%30.18 "HgN/A
Weather by CustomWeather, © 2015

See weather overviewHow to use our weather pages